Regional Weather Roundup
Issued by NWS

Home | Current Version | Previous Version | Text Only | Print | Product List | Glossary Off
Versions: 1 2 3 4 5 6 7 8 9 10 11 12 13 14 15 16 17 18 19 20 21 22 23 24 25 26 27 28 29 30 31 32 33 34 35 36 37 38 39 40 41 42 43 44 45 46 47 48 49 50

962
ASUS43 KOAX 301510
RWRNE

WEATHER ROUNDUP FOR NEBRASKA
NATIONAL WEATHER SERVICE OMAHA NE
1000 AM CDT SAT JUL 30 2016

NOTES: SATELLITE DATA IS BEING USED TO AUGMENT CLOUD COVER ABOVE
       12000 FEET.
       "FAIR" INDICATES FEW OR NO CLOUDS BELOW 12,000 FEET WITH NO
       SIGNIFICANT WEATHER AND/OR OBSTRUCTIONS TO VISIBILITY.

  * THESE STATIONS DO NOT REPORT WEATHER SUCH AS RAIN...SNOW OR FOG.

NEZ001>004-019>022-054>056-301600-
NEBRASKA PANHANDLE

CITY           SKY/WX    TMP DP  RH WIND       PRES   REMARKS
SCOTTSBLUFF    SUNNY     70  62  76 E6        30.01S
ALLIANCE       SUNNY     70  62  76 S5        30.01S
CHADRON        SUNNY     75  61  61 S10       29.96F
KIMBALL        SUNNY     73  62  69 S10       30.06F
SIDNEY         CLOUDY    70  63  78 SE3       30.05R
$$

NEZ057>060-069>072-079>082-301600-
SOUTHWEST NEBRASKA

CITY           SKY/WX    TMP DP  RH WIND       PRES   REMARKS
NORTH PLATTE   PTSUNNY   71  65  81 E12       30.02R
IMPERIAL       CLOUDY    71  62  73 S8        30.01R
LEXINGTON      CLOUDY    69  65  85 E13       30.03S
MCCOOK         SUNNY     75  65  70 S7        30.00S
OGALLALA       SUNNY     73  63  72 SE3       30.00F
$$

NEZ005>010-023>029-035>040-094-301600-
NORTH CENTRAL NEBRASKA

CITY           SKY/WX    TMP DP  RH WIND       PRES   REMARKS
VALENTINE      MOSUNNY   73  61  65 S18       29.99F
AINSWORTH      CLOUDY    72  63  73 S10       30.01F
BROKEN BOW     CLOUDY    66  62  87 SE12      30.04F
O`NEILL        MOSUNNY   70  64  80 S6        30.02F
ORD            MOSUNNY   67  63  87 S6        30.01F
THEDFORD       CLOUDY    68  64  87 SE15      30.03F
$$

NEZ041-046>049-061>064-073>077-083>087-301600-
SOUTH CENTRAL NEBRASKA

CITY           SKY/WX    TMP DP  RH WIND       PRES   REMARKS
GRAND ISLAND   RAIN      63  61  93 N7        30.05R
AURORA         TSTM      63  63  99 E15       30.00F
HASTINGS       CLOUDY    63  62  97 E7        30.05F
HEBRON         CLOUDY    72  63  74 SE7       30.02F
HOLDREGE       CLOUDY    69  65  87 E10       30.04R
KEARNEY *      CLOUDY    64  61  88 E7        30.06S
YORK           TSTM      64  63  94 W8        30.08R
$$

NEZ011>018-030>034-042>045-301600-
NORTHEAST NEBRASKA

CITY           SKY/WX    TMP DP  RH WIND       PRES   REMARKS
NORFOLK        CLOUDY    66  61  84 SE6       30.02F
ALBION         CLOUDY    65  63  93 SE5       30.01F
BLAIR          MOSUNNY   70  64  80 CALM      30.05F
FREMONT        CLOUDY    68  62  79 CALM      30.05S
TEKAMAH        CLOUDY    69  62  78 SE3       30.04F
WAYNE          PTSUNNY   70  64  79 S7        30.04F
$$

NEZ050>053-065>068-078-088>093-301600-
SOUTHEAST NEBRASKA

CITY           SKY/WX    TMP DP  RH WIND       PRES   REMARKS
LINCOLN        PTSUNNY   71  64  78 E6        30.04
OMAHA EPPLEY   PTSUNNY   71  63  75 CALM      30.04F
BEATRICE       MOSUNNY   75  64  67 E6        30.03S
FALLS CITY     SUNNY     73  66  78 SE3       30.02F
NEBRASKA CITY  MOSUNNY   71  67  88 NE6       30.04S
PLATTSMOUTH    CLOUDY    70  64  82 CALM      30.05S
$$

NEZ044-045-051>053-067-301600-
OMAHA AREA

CITY           SKY/WX    TMP DP  RH WIND       PRES   REMARKS
OMAHA EPPLEY   PTSUNNY   71  63  75 CALM      30.04F
BLAIR          MOSUNNY   70  64  80 CALM      30.05F
FREMONT        CLOUDY    68  62  79 CALM      30.05S
MILLARD        PTSUNNY   71  64  77 SE3       30.04F
OFFUTT AFB     CLOUDY    69  69 100 VRB2      30.04S
PLATTSMOUTH    CLOUDY    70  64  82 CALM      30.05S
WAHOO          FAIR      67  64  87 CALM      30.06R
$$




USA.gov is the U.S. government's official web portal to all federal, state and local government web resources and services.